STARLINK-1168 (45072 NORAD) Tracking and Keplerian Element Data

This shows tracking and keplerian element data for the satellite.

Feedback or suggestion? Click here.




ElementValue
Catalog45072
NameSTARLINK-1168
Epoch Orbit2453
Epoch Day186.91667824
Epoch Year2020
RAAN216.1438
Inclination52.999
Eccentricity0.000109
Argument of Perigee86.726
Mean Anonmoly101.2393
Mean Motion15.05546126
Decay Rate0.00069794
L11 45072U 20006AE 20186.91667824 .00069794 00000-0 47664-2 0 9990
L22 45072 52.9990 216.1438 0001090 86.7260 101.2393 15.05546126 24536

Live tracking and technical data element details for STARLINK-1168 (NORAD 45072). STARLINK-1168 can be tracked NOW for your location showing map with azimuth and elevation plus other details from your city location.

Track the satellite on the map from your city or location and see movement details for azimuth, elevation, latitude, longitude, range, height, and movement on the map or in text.







IsCatalogInMostPopularTable: catalog: 45072, numindb: 27
Update: records affected: 1



GetName: 45072 STARLINK-1168

Hit Count: updated at: Mon, 06 Jul 2020 05:24:16 GMT